Time,TemperatureF,DewpointF,PressureIn,WindDirection,WindDirectionDegrees,WindSpeedMPH,WindSpeedGustMPH,Humidity,HourlyPrecipIn,Conditions,Clouds,dailyrainin,SolarRadiationWatts/m^2,SoftwareType,DateUTC
2013-02-02 00:00:00,19.8,3.7,30.12,West,270,0.0,7.0,49,0.00,,,0.00,0000,Weather View 32 v70,2013-02-02 05:00:00,
2013-02-02 00:05:00,19.9,3.8,30.12,WNW,293,0.0,8.0,49,0.00,,,0.00,0000,Weather View 32 v70,2013-02-02 05:05:00,
2013-02-02 00:10:00,19.8,4.1,30.12,NNW,338,0.0,8.0,50,0.00,,,0.00,0000,Weather View 32 v70,2013-02-02 05:10:00,
2013-02-02 00:15:00,19.5,4.8,30.12,WNW,293,0.0,8.0,52,0.00,,,0.00,0000,Weather View 32 v70,2013-02-02 05:15:00,
2013-02-02 00:25:00,19.4,4.7,30.13,NW,315,0.0,8.0,52,0.00,,,0.00,0000,Weather View 32 v70,2013-02-02 05:25:00,
2013-02-02 00:30:00,19.3,4.1,30.13,WNW,293,2.0,8.0,51,0.00,,,0.00,0000,Weather View 32 v70,2013-02-02 05:30:00,
2013-02-02 00:35:00,19.7,4.4,30.13,WSW,248,3.0,8.0,51,0.00,,,0.00,0000,Weather View 32 v70,2013-02-02 05:35:00,
2013-02-02 00:40:00,19.8,4.1,30.13,WSW,248,0.0,8.0,50,0.00,,,0.00,0008,Weather View 32 v70,2013-02-02 05:40:00,
2013-02-02 00:50:00,19.5,4.8,30.13,WNW,293,0.0,8.0,52,0.00,,,0.00,0000,Weather View 32 v70,2013-02-02 05:50:00,
2013-02-02 00:55:00,19.3,5.0,30.13,West,270,0.0,8.0,53,0.00,,,0.00,0000,Weather View 32 v70,2013-02-02 05:55:00,
2013-02-02 01:00:00,19.2,4.9,30.13,WSW,248,0.0,8.0,53,0.00,,,0.00,0000,Weather View 32 v70,2013-02-02 06:00:00,
2013-02-02 01:10:00,19.2,4.9,30.14,West,270,4.0,7.0,53,0.00,,,0.00,0000,Weather View 32 v70,2013-02-02 06:10:00,
2013-02-02 01:15:00,19.2,5.3,30.14,WNW,293,1.0,8.0,54,0.00,,,0.00,0000,Weather View 32 v70,2013-02-02 06:15:00,
2013-02-02 01:20:00,19.2,4.9,30.14,WNW,293,0.0,8.0,53,0.00,,,0.00,0000,Weather View 32 v70,2013-02-02 06:20:00,
2013-02-02 01:25:00,19.4,5.1,30.14,SW,225,0.0,9.0,53,0.00,,,0.00,0000,Weather View 32 v70,2013-02-02 06:25:00,
2013-02-02 01:30:00,19.5,4.8,30.14,West,270,0.0,22.0,52,0.00,,,0.00,0000,Weather View 32 v70,2013-02-02 06:30:00,
2013-02-02 01:40:00,19.8,4.6,30.15,West,270,1.0,22.0,51,0.00,,,0.00,0000,Weather View 32 v70,2013-02-02 06:40:00,
2013-02-02 01:45:00,19.7,4.4,30.15,SSW,203,0.0,22.0,51,0.00,,,0.00,0000,Weather View 32 v70,2013-02-02 06:45:00,
2013-02-02 01:50:00,19.5,4.8,30.15,WSW,248,2.0,22.0,52,0.00,,,0.00,0000,Weather View 32 v70,2013-02-02 06:50:00,
2013-02-02 02:00:00,19.4,4.7,30.16,West,270,0.0,22.0,52,0.00,,,0.00,0000,Weather View 32 v70,2013-02-02 07:00:00,
2013-02-02 02:05:00,19.2,4.9,30.16,West,270,0.0,22.0,53,0.00,,,0.00,0000,Weather View 32 v70,2013-02-02 07:05:00,
2013-02-02 02:10:00,19.1,4.8,30.16,West,270,0.0,22.0,53,0.00,,,0.00,0008,Weather View 32 v70,2013-02-02 07:10:00,
2013-02-02 02:20:00,19.1,5.2,30.16,WNW,293,0.0,22.0,54,0.00,,,0.00,0000,Weather View 32 v70,2013-02-02 07:20:00,
2013-02-02 02:25:00,19.0,5.1,30.15,West,270,2.0,22.0,54,0.00,,,0.00,0000,Weather View 32 v70,2013-02-02 07:25:00,
2013-02-02 02:30:00,19.0,5.1,30.15,WSW,248,0.0,22.0,54,0.00,,,0.00,0000,Weather View 32 v70,2013-02-02 07:30:00,
2013-02-02 02:35:00,19.0,5.1,30.16,WNW,293,0.0,9.0,54,0.00,,,0.00,0000,Weather View 32 v70,2013-02-02 07:35:00,
2013-02-02 02:40:00,18.9,4.6,30.16,WNW,293,2.0,9.0,53,0.00,,,0.00,0000,Weather View 32 v70,2013-02-02 07:40:00,
2013-02-02 02:45:00,19.0,5.1,30.16,WSW,248,0.0,8.0,54,0.00,,,0.00,0016,Weather View 32 v70,2013-02-02 07:45:00,
2013-02-02 02:50:00,19.0,4.2,30.17,West,270,0.0,8.0,52,0.00,,,0.00,0000,Weather View 32 v70,2013-02-02 07:50:00,
2013-02-02 03:00:00,18.9,4.6,30.16,NW,315,0.0,8.0,53,0.00,,,0.00,0000,Weather View 32 v70,2013-02-02 08:00:00,
2013-02-02 03:10:00,18.6,4.3,30.16,SW,225,0.0,8.0,53,0.00,,,0.00,0000,Weather View 32 v70,2013-02-02 08:10:00,
2013-02-02 03:15:00,18.8,4.0,30.16,WSW,248,2.0,8.0,52,0.00,,,0.00,0000,Weather View 32 v70,2013-02-02 08:15:00,
2013-02-02 03:20:00,18.9,4.1,30.17,SSW,203,0.0,6.0,52,0.00,,,0.00,0016,Weather View 32 v70,2013-02-02 08:20:00,
2013-02-02 03:25:00,19.1,3.5,30.17,West,270,0.0,8.0,50,0.00,,,0.00,0000,Weather View 32 v70,2013-02-02 08:25:00,
2013-02-02 03:35:00,19.1,4.4,30.18,West,270,0.0,8.0,52,0.00,,,0.00,0000,Weather View 32 v70,2013-02-02 08:35:00,
2013-02-02 03:40:00,18.9,4.6,30.18,NW,315,0.0,8.0,53,0.00,,,0.00,0000,Weather View 32 v70,2013-02-02 08:40:00,
2013-02-02 03:50:00,19.0,4.7,30.18,WNW,293,0.0,8.0,53,0.00,,,0.00,0000,Weather View 32 v70,2013-02-02 08:50:00,
2013-02-02 03:55:00,18.9,4.6,30.18,West,270,0.0,8.0,53,0.00,,,0.00,0000,Weather View 32 v70,2013-02-02 08:55:00,
2013-02-02 04:00:00,18.5,5.0,30.18,WNW,293,0.0,8.0,55,0.00,,,0.00,0000,Weather View 32 v70,2013-02-02 09:00:00,
2013-02-02 04:05:00,18.2,5.1,30.18,West,270,0.0,8.0,56,0.00,,,0.00,0000,Weather View 32 v70,2013-02-02 09:05:00,
2013-02-02 04:15:00,17.7,5.1,30.19,West,270,0.0,8.0,57,0.00,,,0.00,0000,Weather View 32 v70,2013-02-02 09:15:00,
2013-02-02 04:20:00,17.5,5.6,30.19,SW,225,1.0,8.0,59,0.00,,,0.00,0000,Weather View 32 v70,2013-02-02 09:20:00,
2013-02-02 04:25:00,17.4,5.5,30.19,WNW,293,0.0,5.0,59,0.00,,,0.00,0000,Weather View 32 v70,2013-02-02 09:25:00,
2013-02-02 04:35:00,17.0,5.5,30.19,WNW,293,0.0,5.0,60,0.00,,,0.00,0000,Weather View 32 v70,2013-02-02 09:35:00,
2013-02-02 04:45:00,16.4,5.3,30.20,NW,315,0.0,5.0,61,0.00,,,0.00,0000,Weather View 32 v70,2013-02-02 09:45:00,
2013-02-02 04:50:00,16.2,5.4,30.20,NW,315,0.0,4.0,62,0.00,,,0.00,0000,Weather View 32 v70,2013-02-02 09:50:00,
2013-02-02 04:55:00,15.8,5.1,30.20,WNW,293,0.0,3.0,62,0.00,,,0.00,0008,Weather View 32 v70,2013-02-02 09:55:00,
2013-02-02 05:00:00,15.7,5.0,30.20,WNW,293,0.0,3.0,62,0.00,,,0.00,0008,Weather View 32 v70,2013-02-02 10:00:00,
2013-02-02 05:05:00,15.7,5.0,30.20,West,270,0.0,3.0,62,0.00,,,0.00,0000,Weather View 32 v70,2013-02-02 10:05:00,
2013-02-02 05:15:00,15.7,5.7,30.20,WNW,293,0.0,4.0,64,0.00,,,0.00,0000,Weather View 32 v70,2013-02-02 10:15:00,
2013-02-02 05:20:00,15.7,5.7,30.21,West,270,0.0,4.0,64,0.00,,,0.00,0000,Weather View 32 v70,2013-02-02 10:20:00,
2013-02-02 05:25:00,15.5,5.8,30.21,SW,225,0.0,4.0,65,0.00,,,0.00,0008,Weather View 32 v70,2013-02-02 10:25:00,
2013-02-02 05:35:00,15.3,5.3,30.21,WNW,293,0.0,4.0,64,0.00,,,0.00,0000,Weather View 32 v70,2013-02-02 10:35:00,
2013-02-02 05:40:00,15.4,5.0,30.22,WNW,293,0.0,4.0,63,0.00,,,0.00,0000,Weather View 32 v70,2013-02-02 10:40:00,
2013-02-02 05:50:00,15.5,5.1,30.22,NW,315,0.0,4.0,63,0.00,,,0.00,0000,Weather View 32 v70,2013-02-02 10:50:00,
2013-02-02 05:55:00,15.5,5.1,30.22,WNW,293,0.0,4.0,63,0.00,,,0.00,0000,Weather View 32 v70,2013-02-02 10:55:00,
2013-02-02 06:00:00,15.5,5.5,30.22,NW,315,0.0,4.0,64,0.00,,,0.00,0000,Weather View 32 v70,2013-02-02 11:00:00,
2013-02-02 06:10:00,14.8,5.2,30.22,NW,315,0.0,4.0,65,0.00,,,0.00,0000,Weather View 32 v70,2013-02-02 11:10:00,
2013-02-02 06:15:00,14.7,5.1,30.23,WNW,293,0.0,4.0,65,0.00,,,0.00,0000,Weather View 32 v70,2013-02-02 11:15:00,
2013-02-02 06:25:00,14.7,5.1,30.22,WNW,293,0.0,4.0,65,0.00,,,0.00,0000,Weather View 32 v70,2013-02-02 11:25:00,
2013-02-02 06:30:00,14.7,5.1,30.22,WNW,293,0.0,1.0,65,0.00,,,0.00,0008,Weather View 32 v70,2013-02-02 11:30:00,
2013-02-02 06:40:00,14.4,5.1,30.22,WNW,293,0.0,1.0,66,0.00,,,0.00,0000,Weather View 32 v70,2013-02-02 11:40:00,
2013-02-02 06:45:00,14.4,5.1,30.22,WNW,293,0.0,1.0,66,0.00,,,0.00,0000,Weather View 32 v70,2013-02-02 11:45:00,
2013-02-02 06:50:00,14.4,5.4,30.22,WNW,293,0.0,0.0,67,0.00,,,0.00,0000,Weather View 32 v70,2013-02-02 11:50:00,
2013-02-02 06:55:00,14.1,5.2,30.22,NW,315,0.0,0.0,67,0.00,,,0.00,0008,Weather View 32 v70,2013-02-02 11:55:00,
2013-02-02 07:00:00,14.0,5.1,30.23,NW,315,0.0,0.0,67,0.00,,,0.00,0000,Weather View 32 v70,2013-02-02 12:00:00,
2013-02-02 07:05:00,14.0,5.1,30.24,NW,315,0.0,0.0,67,0.00,,,0.00,0008,Weather View 32 v70,2013-02-02 12:05:00,
2013-02-02 07:10:00,13.9,5.3,30.24,WNW,293,0.0,0.0,68,0.00,,,0.00,0000,Weather View 32 v70,2013-02-02 12:10:00,
2013-02-02 07:20:00,13.9,5.6,30.24,WNW,293,0.0,0.0,69,0.00,,,0.00,0024,Weather View 32 v70,2013-02-02 12:20:00,
2013-02-02 07:25:00,13.8,5.5,30.24,WNW,293,0.0,0.0,69,0.00,,,0.00,0032,Weather View 32 v70,2013-02-02 12:25:00,
2013-02-02 07:35:00,14.6,6.3,30.24,West,270,0.0,0.0,69,0.00,,,0.00,0016,Weather View 32 v70,2013-02-02 12:35:00,
2013-02-02 07:40:00,14.8,6.2,30.24,West,270,0.0,0.0,68,0.00,,,0.00,0032,Weather View 32 v70,2013-02-02 12:40:00,
2013-02-02 07:45:00,15.5,6.8,30.24,WNW,293,0.0,0.0,68,0.00,,,0.00,0064,Weather View 32 v70,2013-02-02 12:45:00,
2013-02-02 07:54:00,15.9,7.6,30.24,WSW,248,0.0,3.0,69,0.00,,,0.00,0040,Weather View 32 v70,2013-02-02 12:54:00,
2013-02-02 08:00:00,17.0,7.2,30.26,WSW,248,0.0,6.0,65,0.00,,,0.00,0064,Weather View 32 v70,2013-02-02 13:00:00,
2013-02-02 08:05:00,17.5,7.8,30.25,WSW,248,0.0,6.0,65,0.00,,,0.00,0056,Weather View 32 v70,2013-02-02 13:05:00,
2013-02-02 08:15:00,18.6,8.1,30.26,WNW,293,0.0,6.0,63,0.00,,,0.00,0144,Weather View 32 v70,2013-02-02 13:15:00,
2013-02-02 08:20:00,18.9,7.6,30.25,NW,315,0.0,6.0,61,0.00,,,0.00,0136,Weather View 32 v70,2013-02-02 13:20:00,
2013-02-02 08:30:00,19.9,8.2,30.25,WSW,248,0.0,6.0,60,0.00,,,0.00,0152,Weather View 32 v70,2013-02-02 13:30:00,
2013-02-02 08:40:00,21.0,8.5,30.25,SW,225,0.0,6.0,58,0.00,,,0.00,0208,Weather View 32 v70,2013-02-02 13:40:00,
2013-02-02 08:45:00,21.2,8.7,30.26,WNW,293,0.0,6.0,58,0.00,,,0.00,0200,Weather View 32 v70,2013-02-02 13:45:00,
2013-02-02 08:55:00,21.8,8.5,30.26,NW,315,1.0,7.0,56,0.00,,,0.00,0224,Weather View 32 v70,2013-02-02 13:55:00,
2013-02-02 09:00:00,22.4,8.6,30.26,West,270,0.0,7.0,55,0.00,,,0.00,0232,Weather View 32 v70,2013-02-02 14:00:00,
2013-02-02 09:05:00,22.5,7.9,30.26,SW,225,2.0,7.0,53,0.00,,,0.00,0256,Weather View 32 v70,2013-02-02 14:05:00,
2013-02-02 09:15:00,22.8,8.2,30.26,NW,315,0.0,9.0,53,0.00,,,0.00,0288,Weather View 32 v70,2013-02-02 14:15:00,
2013-02-02 09:20:00,23.6,9.0,30.26,NNW,338,0.0,9.0,53,0.00,,,0.00,0272,Weather View 32 v70,2013-02-02 14:20:00,
2013-02-02 09:30:00,24.0,8.1,30.26,SW,225,2.0,9.0,50,0.00,,,0.00,0304,Weather View 32 v70,2013-02-02 14:30:00,
2013-02-02 09:40:00,24.7,7.3,30.26,SSW,203,4.0,9.0,47,0.00,,,0.00,0328,Weather View 32 v70,2013-02-02 14:40:00,
2013-02-02 09:45:00,24.8,7.0,30.25,NW,315,0.0,9.0,46,0.00,,,0.00,0344,Weather View 32 v70,2013-02-02 14:45:00,
2013-02-02 09:55:00,25.6,7.2,30.25,SSW,203,0.0,9.0,45,0.00,,,0.00,0344,Weather View 32 v70,2013-02-02 14:55:00,
2013-02-02 10:05:00,26.3,7.8,30.25,WNW,293,0.0,9.0,45,0.00,,,0.00,0376,Weather View 32 v70,2013-02-02 15:05:00,
2013-02-02 10:15:00,26.7,6.7,30.25,WNW,293,3.0,9.0,42,0.00,,,0.00,0368,Weather View 32 v70,2013-02-02 15:15:00,
2013-02-02 10:25:00,27.0,6.9,30.25,NNW,338,0.0,9.0,42,0.00,,,0.00,0408,Weather View 32 v70,2013-02-02 15:25:00,
2013-02-02 10:30:00,27.3,7.7,30.25,SW,225,2.0,9.0,43,0.00,,,0.00,0416,Weather View 32 v70,2013-02-02 15:30:00,
2013-02-02 10:40:00,27.3,7.2,30.25,West,270,0.0,9.0,42,0.00,,,0.00,0408,Weather View 32 v70,2013-02-02 15:40:00,
2013-02-02 10:45:00,27.5,5.2,30.24,West,270,0.0,10.0,38,0.00,,,0.00,0440,Weather View 32 v70,2013-02-02 15:45:00,
2013-02-02 10:50:00,27.9,6.1,30.24,WSW,248,5.0,10.0,39,0.00,,,0.00,0464,Weather View 32 v70,2013-02-02 15:50:00,
2013-02-02 10:55:00,27.3,6.1,30.24,WNW,293,0.0,10.0,40,0.00,,,0.00,0432,Weather View 32 v70,2013-02-02 15:55:00,
2013-02-02 11:05:00,28.3,7.6,30.23,WNW,293,1.0,10.0,41,0.00,,,0.00,0432,Weather View 32 v70,2013-02-02 16:05:00,
2013-02-02 11:15:00,28.0,8.3,30.22,SW,225,3.0,10.0,43,0.00,,,0.00,0480,Weather View 32 v70,2013-02-02 16:15:00,
2013-02-02 11:25:00,28.8,10.1,30.22,WSW,248,2.0,10.0,45,0.00,,,0.00,0488,Weather View 32 v70,2013-02-02 16:25:00,
2013-02-02 11:30:00,28.8,9.6,30.22,East,90,5.0,10.0,44,0.00,,,0.00,0296,Weather View 32 v70,2013-02-02 16:30:00,
2013-02-02 11:35:00,28.5,9.9,30.22,South,180,6.0,10.0,45,0.00,,,0.00,0392,Weather View 32 v70,2013-02-02 16:35:00,
2013-02-02 11:45:00,28.3,10.7,30.21,SW,225,3.0,10.0,47,0.00,,,0.00,0528,Weather View 32 v70,2013-02-02 16:45:00,
2013-02-02 11:50:00,28.5,10.9,30.21,WSW,248,3.0,20.0,47,0.00,,,0.00,0400,Weather View 32 v70,2013-02-02 16:50:00,
2013-02-02 11:56:00,28.9,10.7,30.20,WSW,248,5.0,20.0,46,0.00,,,0.00,0136,Weather View 32 v70,2013-02-02 16:56:00,
2013-02-02 12:05:00,27.6,11.0,30.20,WSW,248,1.0,20.0,49,0.00,,,0.00,0344,Weather View 32 v70,2013-02-02 17:05:00,
2013-02-02 12:15:00,28.1,11.4,30.19,SSE,158,7.0,20.0,49,0.00,,,0.00,0496,Weather View 32 v70,2013-02-02 17:15:00,
2013-02-02 12:25:00,28.7,11.4,30.19,SSW,203,2.0,20.0,48,0.00,,,0.00,0320,Weather View 32 v70,2013-02-02 17:25:00,
2013-02-02 12:35:00,27.9,10.7,30.18,WNW,293,4.0,20.0,48,0.00,,,0.00,0136,Weather View 32 v70,2013-02-02 17:35:00,
2013-02-02 12:45:00,27.8,11.5,30.17,SW,225,5.0,20.0,50,0.00,,,0.00,0448,Weather View 32 v70,2013-02-02 17:45:00,
2013-02-02 12:50:00,27.4,11.2,30.17,West,270,2.0,17.0,50,0.00,,,0.00,0272,Weather View 32 v70,2013-02-02 17:50:00,
2013-02-02 12:55:00,28.0,12.2,30.17,WSW,248,4.0,17.0,51,0.00,,,0.00,0152,Weather View 32 v70,2013-02-02 17:55:00,
2013-02-02 13:00:00,28.2,8.6,30.16,SSW,203,7.0,17.0,43,0.00,,,0.00,0472,Weather View 32 v70,2013-02-02 18:00:00,
2013-02-02 13:05:00,28.7,10.0,30.16,SW,225,5.0,17.0,45,0.00,,,0.00,0472,Weather View 32 v70,2013-02-02 18:05:00,
2013-02-02 13:15:00,29.2,9.5,30.15,WSW,248,3.0,17.0,43,0.00,,,0.00,0360,Weather View 32 v70,2013-02-02 18:15:00,
2013-02-02 13:25:00,29.2,8.4,30.15,WSW,248,0.0,17.0,41,0.00,,,0.00,0320,Weather View 32 v70,2013-02-02 18:25:00,
2013-02-02 13:30:00,28.9,6.4,30.15,SSW,203,5.0,17.0,38,0.00,,,0.00,0288,Weather View 32 v70,2013-02-02 18:30:00,
2013-02-02 13:35:00,28.9,6.4,30.14,SSW,203,4.0,17.0,38,0.00,,,0.00,0448,Weather View 32 v70,2013-02-02 18:35:00,
2013-02-02 13:45:00,29.2,8.4,30.13,SSW,203,1.0,17.0,41,0.00,,,0.00,0136,Weather View 32 v70,2013-02-02 18:45:00,
2013-02-02 13:50:00,29.3,8.0,30.13,West,270,3.0,36.0,40,0.00,,,0.00,0192,Weather View 32 v70,2013-02-02 18:50:00,
2013-02-02 13:55:00,29.1,7.8,30.14,WSW,248,1.0,36.0,40,0.00,,,0.00,0416,Weather View 32 v70,2013-02-02 18:55:00,
2013-02-02 14:00:00,29.1,7.8,30.14,SW,225,1.0,36.0,40,0.00,,,0.00,0128,Weather View 32 v70,2013-02-02 19:00:00,
2013-02-02 14:05:00,28.8,10.1,30.13,South,180,2.0,36.0,45,0.00,,,0.00,0168,Weather View 32 v70,2013-02-02 19:05:00,
2013-02-02 14:10:00,28.5,10.4,30.13,SW,225,0.0,36.0,46,0.00,,,0.00,0456,Weather View 32 v70,2013-02-02 19:10:00,
2013-02-02 14:20:00,29.0,10.8,30.13,SW,225,3.0,36.0,46,0.00,,,0.00,0112,Weather View 32 v70,2013-02-02 19:20:00,
2013-02-02 14:25:00,28.5,9.4,30.13,WSW,248,5.0,36.0,44,0.00,,,0.00,0096,Weather View 32 v70,2013-02-02 19:25:00,
2013-02-02 14:30:00,28.3,9.2,30.13,SSW,203,5.0,36.0,44,0.00,,,0.00,0152,Weather View 32 v70,2013-02-02 19:30:00,
2013-02-02 14:35:00,28.3,9.2,30.12,West,270,0.0,36.0,44,0.00,,,0.00,0200,Weather View 32 v70,2013-02-02 19:35:00,
2013-02-02 14:40:00,28.8,8.6,30.12,SW,225,4.0,36.0,42,0.00,,,0.00,0328,Weather View 32 v70,2013-02-02 19:40:00,
2013-02-02 14:45:00,29.2,7.3,30.12,WSW,248,4.0,36.0,39,0.00,,,0.00,0336,Weather View 32 v70,2013-02-02 19:45:00,
2013-02-02 14:50:00,29.2,7.9,30.12,WSW,248,3.0,36.0,40,0.00,,,0.00,0256,Weather View 32 v70,2013-02-02 19:50:00,
2013-02-02 14:55:00,29.0,8.2,30.12,WSW,248,4.0,14.0,41,0.00,,,0.00,0224,Weather View 32 v70,2013-02-02 19:55:00,
2013-02-02 15:00:00,28.8,8.0,30.12,WNW,293,2.0,14.0,41,0.00,,,0.00,0208,Weather View 32 v70,2013-02-02 20:00:00,
2013-02-02 15:05:00,29.1,7.8,30.11,WSW,248,4.0,14.0,40,0.00,,,0.00,0184,Weather View 32 v70,2013-02-02 20:05:00,
2013-02-02 15:15:00,29.1,7.2,30.11,SW,225,5.0,19.0,39,0.00,,,0.00,0272,Weather View 32 v70,2013-02-02 20:15:00,
2013-02-02 15:20:00,29.2,9.0,30.11,WSW,248,4.0,19.0,42,0.00,,,0.00,0152,Weather View 32 v70,2013-02-02 20:20:00,
2013-02-02 15:25:00,28.7,9.0,30.11,SSW,203,4.0,19.0,43,0.00,,,0.00,0176,Weather View 32 v70,2013-02-02 20:25:00,
2013-02-02 15:30:00,28.7,10.0,30.11,SSW,203,2.0,19.0,45,0.00,,,0.00,0136,Weather View 32 v70,2013-02-02 20:30:00,
2013-02-02 15:40:00,28.7,9.5,30.10,WSW,248,4.0,19.0,44,0.00,,,0.00,0128,Weather View 32 v70,2013-02-02 20:40:00,
2013-02-02 15:45:00,28.7,9.0,30.10,SW,225,2.0,19.0,43,0.00,,,0.00,0112,Weather View 32 v70,2013-02-02 20:45:00,
2013-02-02 15:50:00,28.5,9.4,30.10,SW,225,2.0,19.0,44,0.00,,,0.00,0064,Weather View 32 v70,2013-02-02 20:50:00,
2013-02-02 15:55:00,28.3,10.2,30.10,WNW,293,0.0,19.0,46,0.00,,,0.00,0072,Weather View 32 v70,2013-02-02 20:55:00,
2013-02-02 16:05:00,28.3,10.7,30.10,NW,315,0.0,19.0,47,0.00,,,0.00,0040,Weather View 32 v70,2013-02-02 21:05:00,
2013-02-02 16:15:00,28.1,11.4,30.10,WNW,293,0.0,19.0,49,0.00,,,0.00,0048,Weather View 32 v70,2013-02-02 21:15:00,
2013-02-02 16:20:00,28.0,10.3,30.09,WNW,293,2.0,16.0,47,0.00,,,0.00,0032,Weather View 32 v70,2013-02-02 21:20:00,
2013-02-02 16:25:00,27.9,10.7,30.10,South,180,0.0,15.0,48,0.00,,,0.00,0024,Weather View 32 v70,2013-02-02 21:25:00,
2013-02-02 16:30:00,27.9,10.7,30.09,West,270,4.0,15.0,48,0.00,,,0.00,0024,Weather View 32 v70,2013-02-02 21:30:00,
2013-02-02 16:35:00,27.8,10.6,30.09,SSW,203,4.0,15.0,48,0.00,,,0.00,0008,Weather View 32 v70,2013-02-02 21:35:00,
2013-02-02 16:45:00,27.4,10.8,30.09,SSW,203,9.0,15.0,49,0.00,,,0.00,0008,Weather View 32 v70,2013-02-02 21:45:00,
2013-02-02 16:50:00,27.3,11.1,30.09,West,270,7.0,21.0,50,0.00,,,0.00,0016,Weather View 32 v70,2013-02-02 21:50:00,
2013-02-02 16:55:00,27.2,11.4,30.10,West,270,3.0,21.0,51,0.00,,,0.00,0008,Weather View 32 v70,2013-02-02 21:55:00,
2013-02-02 17:00:00,27.1,11.8,30.09,West,270,1.0,21.0,52,0.00,,,0.00,0000,Weather View 32 v70,2013-02-02 22:00:00,
2013-02-02 17:10:00,27.0,12.1,30.09,WSW,248,4.0,21.0,53,0.00,,,0.00,0000,Weather View 32 v70,2013-02-02 22:10:00,
2013-02-02 17:20:00,26.9,12.4,30.09,SW,225,1.0,21.0,54,0.00,,,0.00,0000,Weather View 32 v70,2013-02-02 22:20:00,
2013-02-02 17:25:00,26.7,12.7,30.08,West,270,3.0,21.0,55,0.00,,,0.00,0000,Weather View 32 v70,2013-02-02 22:25:00,
2013-02-02 17:30:00,26.9,12.8,30.08,WSW,248,2.0,21.0,55,0.00,,,0.00,0008,Weather View 32 v70,2013-02-02 22:30:00,
2013-02-02 17:35:00,26.9,12.8,30.08,SW,225,3.0,21.0,55,0.00,,,0.00,0008,Weather View 32 v70,2013-02-02 22:35:00,
2013-02-02 17:40:00,26.7,13.1,30.08,WSW,248,0.0,21.0,56,0.00,,,0.00,0000,Weather View 32 v70,2013-02-02 22:40:00,
2013-02-02 17:50:00,27.1,13.4,30.08,SW,225,5.0,21.0,56,0.00,,,0.00,0000,Weather View 32 v70,2013-02-02 22:50:00,
2013-02-02 17:55:00,27.1,13.0,30.08,WSW,248,8.0,14.0,55,0.00,,,0.00,0000,Weather View 32 v70,2013-02-02 22:55:00,
2013-02-02 18:00:00,27.2,13.2,30.08,NW,315,0.0,14.0,55,0.00,,,0.00,0000,Weather View 32 v70,2013-02-02 23:00:00,
2013-02-02 18:05:00,27.2,13.6,30.09,WSW,248,5.0,29.0,56,0.00,,,0.00,0000,Weather View 32 v70,2013-02-02 23:05:00,
2013-02-02 18:10:00,27.2,13.6,30.09,WSW,248,10.0,29.0,56,0.00,,,0.00,0000,Weather View 32 v70,2013-02-02 23:10:00,
2013-02-02 18:15:00,27.2,14.0,30.08,West,270,0.0,29.0,57,0.00,,,0.00,0000,Weather View 32 v70,2013-02-02 23:15:00,
2013-02-02 18:25:00,27.0,14.2,30.08,WSW,248,2.0,29.0,58,0.00,,,0.00,0000,Weather View 32 v70,2013-02-02 23:25:00,
2013-02-02 18:30:00,27.2,14.4,30.08,WSW,248,0.0,29.0,58,0.00,,,0.00,0000,Weather View 32 v70,2013-02-02 23:30:00,
2013-02-02 18:35:00,27.2,14.4,30.08,West,270,0.0,29.0,58,0.00,,,0.00,0000,Weather View 32 v70,2013-02-02 23:35:00,
2013-02-02 18:40:00,27.3,14.5,30.08,WSW,248,1.0,29.0,58,0.00,,,0.00,0000,Weather View 32 v70,2013-02-02 23:40:00,
2013-02-02 18:45:00,27.3,14.9,30.08,SSW,203,3.0,29.0,59,0.00,,,0.00,0000,Weather View 32 v70,2013-02-02 23:45:00,
2013-02-02 18:50:00,27.3,14.9,30.08,SSW,203,0.0,29.0,59,0.00,,,0.00,0000,Weather View 32 v70,2013-02-02 23:50:00,
2013-02-02 18:55:00,27.4,14.6,30.08,West,270,2.0,29.0,58,0.00,,,0.00,0000,Weather View 32 v70,2013-02-02 23:55:00,
2013-02-02 19:00:00,27.4,14.6,30.07,WSW,248,4.0,29.0,58,0.00,,,0.00,0000,Weather View 32 v70,2013-02-03 00:00:00,
2013-02-02 19:10:00,27.4,14.6,30.07,SW,225,0.0,13.0,58,0.00,,,0.00,0000,Weather View 32 v70,2013-02-03 00:10:00,
2013-02-02 19:20:00,27.6,15.2,30.07,West,270,0.0,22.0,59,0.00,,,0.00,0000,Weather View 32 v70,2013-02-03 00:20:00,
2013-02-02 19:25:00,27.6,14.8,30.06,WNW,293,0.0,22.0,58,0.00,,,0.00,0000,Weather View 32 v70,2013-02-03 00:25:00,
2013-02-02 19:30:00,27.6,15.2,30.06,WNW,293,0.0,22.0,59,0.00,,,0.00,0008,Weather View 32 v70,2013-02-03 00:30:00,
2013-02-02 19:40:00,27.8,15.3,30.06,SW,225,4.0,22.0,59,0.00,,,0.00,0000,Weather View 32 v70,2013-02-03 00:40:00,
2013-02-02 19:45:00,27.8,15.7,30.06,WNW,293,0.0,22.0,60,0.00,,,0.00,0008,Weather View 32 v70,2013-02-03 00:45:00,
2013-02-02 19:50:00,27.8,15.7,30.06,West,270,0.0,22.0,60,0.00,,,0.00,0000,Weather View 32 v70,2013-02-03 00:50:00,
2013-02-02 20:00:00,27.8,15.7,30.06,WSW,248,4.0,22.0,60,0.00,,,0.00,0000,Weather View 32 v70,2013-02-03 01:00:00,
2013-02-02 20:05:00,27.6,15.6,30.06,SW,225,2.0,22.0,60,0.00,,,0.00,0000,Weather View 32 v70,2013-02-03 01:05:00,
2013-02-02 20:15:00,27.8,15.7,30.06,West,270,2.0,22.0,60,0.00,,,0.00,0000,Weather View 32 v70,2013-02-03 01:15:00,
2013-02-02 20:20:00,27.8,15.7,30.06,WSW,248,4.0,22.0,60,0.00,,,0.00,0000,Weather View 32 v70,2013-02-03 01:20:00,
2013-02-02 20:25:00,27.9,15.8,30.06,WSW,248,1.0,22.0,60,0.00,,,0.00,0000,Weather View 32 v70,2013-02-03 01:25:00,
2013-02-02 20:30:00,28.0,15.9,30.06,West,270,0.0,22.0,60,0.00,,,0.00,0000,Weather View 32 v70,2013-02-03 01:30:00,
2013-02-02 20:40:00,28.2,16.1,30.06,WSW,248,1.0,22.0,60,0.00,,,0.00,0000,Weather View 32 v70,2013-02-03 01:40:00,
2013-02-02 20:45:00,28.1,15.6,30.06,SW,225,4.0,13.0,59,0.00,,,0.00,0000,Weather View 32 v70,2013-02-03 01:45:00,
2013-02-02 20:50:00,28.2,16.1,30.05,SSE,158,0.0,13.0,60,0.00,,,0.00,0000,Weather View 32 v70,2013-02-03 01:50:00,
2013-02-02 20:55:00,28.1,16.0,30.06,WNW,293,1.0,13.0,60,0.00,,,0.00,0000,Weather View 32 v70,2013-02-03 01:55:00,
2013-02-02 21:01:00,28.2,16.1,30.06,SW,225,1.0,13.0,60,0.00,,,0.00,0000,Weather View 32 v70,2013-02-03 02:01:00,
2013-02-02 21:10:00,28.2,16.5,30.06,WSW,248,3.0,13.0,61,0.00,,,0.00,0000,Weather View 32 v70,2013-02-03 02:10:00,
2013-02-02 21:20:00,28.2,15.7,30.06,WSW,248,4.0,13.0,59,0.00,,,0.00,0000,Weather View 32 v70,2013-02-03 02:20:00,
2013-02-02 21:30:00,28.3,15.4,30.06,West,270,0.0,12.0,58,0.00,,,0.00,0000,Weather View 32 v70,2013-02-03 02:30:00,
2013-02-02 21:35:00,28.3,15.0,30.05,SSW,203,2.0,12.0,57,0.00,,,0.00,0000,Weather View 32 v70,2013-02-03 02:35:00,
2013-02-02 21:40:00,28.3,14.6,30.05,West,270,2.0,12.0,56,0.00,,,0.00,0000,Weather View 32 v70,2013-02-03 02:40:00,
2013-02-02 21:45:00,28.3,14.6,30.05,West,270,2.0,12.0,56,0.00,,,0.00,0008,Weather View 32 v70,2013-02-03 02:45:00,
2013-02-02 21:50:00,28.4,14.7,30.05,SSW,203,2.0,12.0,56,0.00,,,0.00,0000,Weather View 32 v70,2013-02-03 02:50:00,
2013-02-02 21:55:00,28.3,14.6,30.04,WSW,248,7.0,18.0,56,0.00,,,0.00,0000,Weather View 32 v70,2013-02-03 02:55:00,
2013-02-02 22:02:00,28.3,15.0,30.05,WNW,293,3.0,18.0,57,0.00,,,0.00,0000,Weather View 32 v70,2013-02-03 03:02:00,
2013-02-02 22:10:00,28.2,14.9,30.05,SW,225,4.0,18.0,57,0.00,,,0.00,0008,Weather View 32 v70,2013-02-03 03:10:00,
2013-02-02 22:20:00,28.0,16.3,30.05,West,270,4.0,18.0,61,0.00,,,0.00,0000,Weather View 32 v70,2013-02-03 03:20:00,
2013-02-02 22:25:00,27.8,16.4,30.05,WSW,248,6.0,24.0,62,0.00,,,0.00,0008,Weather View 32 v70,2013-02-03 03:25:00,
2013-02-02 22:35:00,27.5,16.9,30.05,SW,225,4.0,24.0,64,0.00,,,0.00,0000,Weather View 32 v70,2013-02-03 03:35:00,
2013-02-02 22:45:00,27.1,17.2,30.06,SW,225,2.0,24.0,66,0.00,,,0.00,0008,Weather View 32 v70,2013-02-03 03:45:00,
2013-02-02 22:55:00,26.9,17.7,30.06,West,270,0.0,24.0,68,0.00,,,0.00,0000,Weather View 32 v70,2013-02-03 03:55:00,
2013-02-02 23:00:00,26.7,17.9,30.06,WSW,248,0.0,24.0,69,0.00,,,0.00,0008,Weather View 32 v70,2013-02-03 04:00:00,
2013-02-02 23:10:00,26.2,18.4,30.06,SW,225,1.0,24.0,72,0.00,,,0.00,0000,Weather View 32 v70,2013-02-03 04:10:00,
2013-02-02 23:15:00,26.0,18.8,30.06,NW,315,0.0,24.0,74,0.00,,,0.00,0000,Weather View 32 v70,2013-02-03 04:15:00,
2013-02-02 23:25:00,25.7,18.9,30.06,NW,315,0.0,24.0,75,0.00,,,0.00,0008,Weather View 32 v70,2013-02-03 04:25:00,
2013-02-02 23:30:00,25.7,19.2,30.06,WNW,293,0.0,12.0,76,0.00,,,0.00,0000,Weather View 32 v70,2013-02-03 04:30:00,
2013-02-02 23:35:00,25.6,19.1,30.05,West,270,5.0,12.0,76,0.00,,,0.00,0000,Weather View 32 v70,2013-02-03 04:35:00,
2013-02-02 23:45:00,25.4,18.9,30.06,NNW,338,0.0,9.0,76,0.00,,,0.00,0000,Weather View 32 v70,2013-02-03 04:45:00,
2013-02-02 23:50:00,25.4,19.2,30.05,WSW,248,0.0,9.0,77,0.00,,,0.00,0000,Weather View 32 v70,2013-02-03 04:50:00,
2013-02-02 23:55:00,25.3,19.1,30.05,NW,315,0.0,9.0,77,0.00,,,0.00,0000,Weather View 32 v70,2013-02-03 04:55:00,